Location: Tucson
(32.2217°N, 110.9265°W)
Time: 06:49:47
(UTC-07:00)

X-37B - Visible Passes

Search period start: 06 October 2022 00:00
Search period end: 16 October 2022 00:00
Orbit: 329 x 342 km, 45.0° (Epoch: 29 September)

Date Brightness Start Highest point End Pass type
(mag) Time Alt. Az. Time Alt. Az. Time Alt. Az.
06 Oct 3.8 04:14:24 12° ENE 04:14:24 12° ENE 04:14:51 10° ENE visible
06 Oct 0.5 05:45:42 10° WNW 05:48:31 54° SW 05:51:20 10° SE visible
07 Oct 2.5 04:34:32 27° E 04:34:32 27° E 04:36:14 10° ESE visible
08 Oct 1.5 04:54:50 35° SSE 04:54:50 35° SSE 04:56:45 10° SE visible
09 Oct 2.7 05:15:14 13° SSW 05:15:14 13° SSW 05:16:00 10° S visible
11 Oct 2.6 19:03:05 10° S 19:03:51 13° SSE 19:03:51 13° SSE visible
12 Oct 1.6 19:22:22 10° SW 19:24:06 32° SSW 19:24:06 32° SSW visible
13 Oct 2.9 19:42:56 10° W 19:44:13 22° W 19:44:13 22° W visible
14 Oct 0.4 18:27:48 10° SW 18:30:32 56° SE 18:32:56 13° ENE visible
15 Oct 1.5 18:48:21 10° WSW 18:51:00 37° NNW 18:52:47 17° NNE visible
